OPS 4682 DEB, 38393

Orbit data source: Space-Track

OPS 4682 DEB, 38393 is space debris in LEO originally from a launch on Sat, 03 Apr 1965 UTC launched from the Air Force Western Test Range (AFWTR). Debris objects in space refer to the collection of defunct objects orbiting the Earth. Examples of debris include non-operational satellites, rocket bodies, and fragments generated from explosions, collisions, or faulty payload assembly.

Loading next visibility...
Identifier
38393, 1965-027CW
Orbit
LEO
Country
Flag of USUS
Related business
Manufacturer
Unknown
Mission
Spacecraft
Bus & Motor
Unknown
Mass
Unknown
Launch date (UTC)
1965-04-03 (61 years ago)
Launch vehicle
Unknown
Launch site
Air Force Western Test Range (AFWTR)
Object type
Payload
Rocket body
Debris
Shape & HBR
Unknown shape, 0.1 m
Radar Cross Section
Small (<0.1 m²)

Expand to show TLE details & history
Last TLE update: 3 days ago

TLE from 3 days ago
0 OPS 4682 DEB
1 38393U 65027CW  25346.78704331 -.00000034  00000-0 -14110-3 0  9998
2 38393  90.2506  12.4721 0026910 144.8833 215.4068 12.98356752601636
Epoch: 2025-12-12T18:53Z
TLE epoch observation values (Epoch: 2025-12-12T18:53:20.541Z)
Latitude
-0.00012°
Longitude
7.41285°
Altitude
1,288.206 km
Speed
7.204 km/s
True Right ascension
00h 49m 53s
True Declination
0° 00' 00"
Sunlit
Object was in daylight at epoch
Visualization orbit readout
Latitude
Unknown
Longitude
Unknown
Altitude
Unknown
Speed
Unknown
Apparent Right ascension
Unknown
Apparent Declination
Unknown
Sunlit
N/A
Visualization observer readout
Local Sidereal Time
22:10:55
Azimuth
Unknown
Elevation
Unknown
Doppler factor
Unknown
Orbital elements
Apogee altitude
1,286.231 km
Perigee altitude
1,245.092 km
Semi-major axis
7,643.798 km
Eccentricity
0.00269
Inclination
90.2506°
RAAN
12.4721°
Arg. of periapsis
144.8833°
True anomaly
215.22863°
Mean anomaly
215.4068°
Eccentric anomaly
215.31767°
Mean motion
3.24773 °/min
Orbital period
110.85 mins
BSTAR
-0.0001411
Loading maneuver chart data...
Computing Atmospheric mass density...
Loading historical data...
Loading historical data...
Loading historical data...
Loading historical data...
Loading historical data...
Loading historical data...
Loading historical data...

Documentation

Showing up to 5 results
|